Check out our new BloomSky Weather System.

Active alerts

Houston, TX
  Details for Houston, TX Dense Fog Advisory


Thunder radar  blitzortung!


Rain radar more information rain snow radar


Visit our other weather sites:

Template documentation
and downloads

And another site



Weather Underground History page Text

Daily Summary for April 21, 2017 Units:  English    Metric   Both
« Previous Day
Next Day »
Daily Weekly Monthly Yearly Custom
  High: Low: Average:
Temperature: 87.6 °F 68.4 °F 77.6 °F
Dew Point: 73.8 °F 64.6 °F 69.9 °F
Humidity: 99 % 48 % 79 %
Wind Speed: 14.0 mph 0.0 mph 4 mph
Wind Gust: 18.0 mph - -
Wind:- - SSE
Pressure: 29.97 in 29.77 in -
Precipitation: 0.00 in    
Historical Graphs
 
 
Tabular Data for April 21, 2017
Time Temperature Dew Point Pressure Wind Wind Speed Wind Gust Humidity Rainfall Rate (Hourly)
00:01 72.7 °F 70.0 °F 29.97 in SE 3.0 mph 6.0 mph 91 % 0.00 in
00:06 72.7 °F 70.0 °F 29.97 in SE 2.0 mph 6.0 mph 91 % 0.00 in
00:11 72.5 °F 69.8 °F 29.97 in South 2.0 mph 6.0 mph 91 % 0.00 in
00:16 72.3 °F 69.6 °F 29.97 in SSW 4.0 mph 6.0 mph 91 % 0.00 in
00:21 72.3 °F 69.8 °F 29.97 in SSE 3.0 mph 6.0 mph 92 % 0.00 in
00:26 72.3 °F 69.8 °F 29.97 in SSE 3.0 mph 6.0 mph 92 % 0.00 in
00:31 72.1 °F 69.6 °F 29.97 in SE 3.0 mph 6.0 mph 92 % 0.00 in
00:36 72.1 °F 69.6 °F 29.97 in SSE 2.0 mph 6.0 mph 92 % 0.00 in
00:41 72.0 °F 69.8 °F 29.97 in SSE 1.0 mph 6.0 mph 93 % 0.00 in
00:46 72.0 °F 69.8 °F 29.97 in SSE 2.0 mph 5.0 mph 93 % 0.00 in
00:51 72.0 °F 69.8 °F 29.96 in SSE 3.0 mph 4.0 mph 93 % 0.00 in
00:56 71.8 °F 69.6 °F 29.96 in SE 1.0 mph 4.0 mph 93 % 0.00 in
01:01 71.8 °F 69.6 °F 29.96 in SSE 2.0 mph 4.0 mph 93 % 0.00 in
01:06 71.8 °F 69.6 °F 29.96 in SE 2.0 mph 5.0 mph 93 % 0.00 in
01:11 71.6 °F 69.4 °F 29.96 in SE 2.0 mph 5.0 mph 93 % 0.00 in
01:20 71.4 °F 69.3 °F 29.96 in SSE 2.0 mph 4.0 mph 93 % 0.00 in
01:25 71.4 °F 69.6 °F 29.96 in SE 1.0 mph 5.0 mph 94 % 0.00 in
01:30 71.4 °F 69.6 °F 29.96 in SE 2.0 mph 5.0 mph 94 % 0.00 in
01:35 71.2 °F 69.4 °F 29.95 in South 1.0 mph 5.0 mph 94 % 0.00 in
01:40 71.2 °F 69.4 °F 29.95 in ESE 2.0 mph 4.0 mph 94 % 0.00 in
01:45 71.1 °F 69.3 °F 29.95 in Calm   3.0 mph 94 % 0.00 in
01:50 71.1 °F 69.3 °F 29.95 in Calm   3.0 mph 94 % 0.00 in
01:55 70.9 °F 69.1 °F 29.95 in ESE 1.0 mph 3.0 mph 94 % 0.00 in
02:00 70.9 °F 69.1 °F 29.95 in SE 1.0 mph 2.0 mph 94 % 0.00 in
02:05 70.9 °F 69.4 °F 29.95 in ESE 1.0 mph 2.0 mph 95 % 0.00 in
02:10 70.7 °F 69.3 °F 29.95 in ESE 1.0 mph 3.0 mph 95 % 0.00 in
02:15 70.7 °F 69.3 °F 29.94 in ESE 2.0 mph 3.0 mph 95 % 0.00 in
02:20 70.5 °F 69.1 °F 29.94 in Calm   3.0 mph 95 % 0.00 in
02:25 70.5 °F 69.1 °F 29.94 in Calm   3.0 mph 95 % 0.00 in
02:30 70.3 °F 68.9 °F 29.94 in Calm   3.0 mph 95 % 0.00 in
02:35 70.3 °F 68.9 °F 29.94 in Calm   3.0 mph 95 % 0.00 in
02:40 70.2 °F 68.7 °F 29.94 in Calm   2.0 mph 95 % 0.00 in
02:45 70.2 °F 68.7 °F 29.94 in Calm   1.0 mph 95 % 0.00 in
02:50 70.3 °F 69.1 °F 29.94 in Calm   3.0 mph 96 % 0.00 in
02:55 70.3 °F 69.1 °F 29.94 in Calm   3.0 mph 96 % 0.00 in
03:00 70.3 °F 69.1 °F 29.93 in SE 2.0 mph 3.0 mph 96 % 0.00 in
03:05 70.3 °F 69.1 °F 29.93 in SSE 1.0 mph 3.0 mph 96 % 0.00 in
03:10 70.2 °F 68.9 °F 29.93 in SSE 1.0 mph 3.0 mph 96 % 0.00 in
03:15 70.3 °F 69.1 °F 29.93 in Calm   3.0 mph 96 % 0.00 in
03:20 70.3 °F 69.1 °F 29.93 in ESE 1.0 mph 2.0 mph 96 % 0.00 in
03:25 70.3 °F 69.1 °F 29.93 in Calm   2.0 mph 96 % 0.00 in
03:30 70.3 °F 69.1 °F 29.93 in Calm   2.0 mph 96 % 0.00 in
03:35 70.2 °F 68.9 °F 29.93 in Calm   2.0 mph 96 % 0.00 in
03:40 70.0 °F 68.7 °F 29.93 in Calm   2.0 mph 96 % 0.00 in
03:45 70.0 °F 68.7 °F 29.93 in Calm   2.0 mph 96 % 0.00 in
03:50 70.0 °F 68.7 °F 29.93 in Calm   1.0 mph 96 % 0.00 in
03:55 69.8 °F 68.5 °F 29.93 in Calm   1.0 mph 96 % 0.00 in
04:00 69.8 °F 68.5 °F 29.93 in Calm   1.0 mph 96 % 0.00 in
04:05 69.6 °F 68.7 °F 29.93 in SSE 1.0 mph 2.0 mph 97 % 0.00 in
04:11 69.6 °F 68.7 °F 29.93 in Calm   2.0 mph 97 % 0.00 in
04:16 69.6 °F 68.7 °F 29.93 in ESE 1.0 mph 2.0 mph 97 % 0.00 in
04:21 69.6 °F 68.7 °F 29.93 in SE 1.0 mph 2.0 mph 97 % 0.00 in
04:26 69.4 °F 68.5 °F 29.93 in Calm   2.0 mph 97 % 0.00 in
04:31 69.4 °F 68.5 °F 29.93 in Calm   2.0 mph 97 % 0.00 in
04:36 69.4 °F 68.5 °F 29.93 in Calm   2.0 mph 97 % 0.00 in
04:41 69.4 °F 68.5 °F 29.93 in Calm   1.0 mph 97 % 0.00 in
04:46 69.4 °F 68.5 °F 29.93 in Calm   1.0 mph 97 % 0.00 in
04:51 69.3 °F 68.4 °F 29.93 in Calm   1.0 mph 97 % 0.00 in
04:56 69.1 °F 68.2 °F 29.93 in Calm   1.0 mph 97 % 0.00 in
05:01 69.1 °F 68.2 °F 29.93 in Calm   1.0 mph 97 % 0.00 in
05:06 69.1 °F 68.2 °F 29.92 in Calm   1.0 mph 97 % 0.00 in
05:11 69.1 °F 68.2 °F 29.92 in Calm   1.0 mph 97 % 0.00 in
05:16 69.1 °F 68.2 °F 29.92 in Calm   1.0 mph 97 % 0.00 in
05:21 69.1 °F 68.5 °F 29.92 in Calm   1.0 mph 98 % 0.00 in
05:26 68.9 °F 68.0 °F 29.92 in Calm   1.0 mph 97 % 0.00 in
05:31 68.7 °F 67.8 °F 29.92 in Calm   1.0 mph 97 % 0.00 in
05:36 68.7 °F 68.2 °F 29.92 in Calm     98 % 0.00 in
05:41 68.5 °F 67.6 °F 29.92 in Calm     97 % 0.00 in
05:46 68.4 °F 67.8 °F 29.92 in Calm     98 % 0.00 in
05:51 68.5 °F 68.0 °F 29.92 in Calm     98 % 0.00 in
05:53 68.5 °F 68.0 °F 29.92 in Calm     98 % 0.00 in
05:56 68.5 °F 68.0 °F 29.92 in Calm   1.0 mph 98 % 0.00 in
06:01 68.5 °F 68.0 °F 29.92 in Calm   1.0 mph 98 % 0.00 in
06:06 68.5 °F 68.0 °F 29.92 in Calm   1.0 mph 98 % 0.00 in
06:11 68.7 °F 68.2 °F 29.92 in Calm   1.0 mph 98 % 0.00 in
06:15 68.9 °F 68.4 °F 29.92 in Calm   1.0 mph 98 % 0.00 in
06:20 68.7 °F 68.2 °F 29.92 in Calm   1.0 mph 98 % 0.00 in
06:25 68.7 °F 68.2 °F 29.92 in Calm     98 % 0.00 in
06:30 68.7 °F 68.2 °F 29.92 in Calm     98 % 0.00 in
06:35 68.7 °F 68.2 °F 29.92 in Calm   1.0 mph 98 % 0.00 in
06:40 68.5 °F 68.0 °F 29.92 in Calm   1.0 mph 98 % 0.00 in
06:45 68.5 °F 68.0 °F 29.92 in Calm   1.0 mph 98 % 0.00 in
06:50 68.5 °F 68.0 °F 29.93 in Calm   1.0 mph 98 % 0.00 in
06:55 68.5 °F 68.0 °F 29.93 in Calm   1.0 mph 98 % 0.00 in
07:00 68.5 °F 68.0 °F 29.92 in Calm     98 % 0.00 in
07:05 68.7 °F 68.2 °F 29.93 in Calm   1.0 mph 98 % 0.00 in
07:10 68.7 °F 68.2 °F 29.93 in Calm   1.0 mph 98 % 0.00 in
07:15 68.9 °F 68.4 °F 29.93 in Calm   1.0 mph 98 % 0.00 in
07:20 69.1 °F 68.5 °F 29.93 in Calm   1.0 mph 98 % 0.00 in
07:25 69.3 °F 68.7 °F 29.93 in Calm   1.0 mph 98 % 0.00 in
07:30 69.4 °F 68.9 °F 29.93 in Calm   1.0 mph 98 % 0.00 in
07:35 69.6 °F 69.3 °F 29.93 in Calm   1.0 mph 99 % 0.00 in
07:40 69.6 °F 69.3 °F 29.93 in Calm     99 % 0.00 in
07:45 69.8 °F 69.4 °F 29.93 in Calm     99 % 0.00 in
07:50 70.0 °F 69.6 °F 29.93 in Calm   1.0 mph 99 % 0.00 in
07:55 70.2 °F 69.8 °F 29.93 in Calm   2.0 mph 99 % 0.00 in
08:00 70.3 °F 70.0 °F 29.93 in SSE 1.0 mph 2.0 mph 99 % 0.00 in
08:05 70.5 °F 70.2 °F 29.93 in ESE 1.0 mph 2.0 mph 99 % 0.00 in
08:10 70.9 °F 70.5 °F 29.93 in SE 2.0 mph 3.0 mph 99 % 0.00 in
08:15 71.2 °F 70.9 °F 29.93 in ESE 2.0 mph 3.0 mph 99 % 0.00 in
08:20 71.8 °F 71.4 °F 29.93 in SE 5.0 mph 5.0 mph 99 % 0.00 in
08:25 72.0 °F 71.6 °F 29.93 in South 1.0 mph 6.0 mph 99 % 0.00 in
08:30 72.3 °F 72.0 °F 29.93 in South 2.0 mph 6.0 mph 99 % 0.00 in
08:35 72.5 °F 72.0 °F 29.93 in SSE 2.0 mph 6.0 mph 98 % 0.00 in
08:40 72.7 °F 72.1 °F 29.93 in SSE 1.0 mph 6.0 mph 98 % 0.00 in
08:45 72.9 °F 72.3 °F 29.93 in SSE 4.0 mph 5.0 mph 98 % 0.00 in
08:50 73.0 °F 72.5 °F 29.93 in SE 4.0 mph 5.0 mph 98 % 0.00 in
08:55 73.2 °F 72.7 °F 29.93 in South 3.0 mph 6.0 mph 98 % 0.00 in
09:00 73.6 °F 72.7 °F 29.93 in South 4.0 mph 6.0 mph 97 % 0.00 in
09:05 73.8 °F 72.9 °F 29.93 in SE 5.0 mph 8.0 mph 97 % 0.00 in
09:10 73.9 °F 72.7 °F 29.93 in SE 2.0 mph 9.0 mph 96 % 0.00 in
09:15 74.3 °F 73.0 °F 29.93 in ESE 4.0 mph 9.0 mph 96 % 0.00 in
09:20 74.5 °F 73.0 °F 29.93 in SW 5.0 mph 9.0 mph 95 % 0.00 in
09:26 74.8 °F 73.0 °F 29.93 in SSE 3.0 mph 9.0 mph 94 % 0.00 in
09:31 75.7 °F 73.6 °F 29.92 in SSE 4.0 mph 10.0 mph 93 % 0.00 in
09:36 76.6 °F 73.8 °F 29.92 in South 4.0 mph 10.0 mph 91 % 0.00 in
09:41 77.2 °F 73.4 °F 29.92 in ESE 10.0 mph 10.0 mph 88 % 0.00 in
09:46 77.7 °F 73.6 °F 29.92 in SE 2.0 mph 12.0 mph 87 % 0.00 in
09:51 78.3 °F 73.0 °F 29.92 in South 5.0 mph 12.0 mph 84 % 0.00 in
09:56 78.1 °F 72.5 °F 29.92 in SW 5.0 mph 12.0 mph 83 % 0.00 in
10:01 78.4 °F 72.9 °F 29.92 in SSW 6.0 mph 11.0 mph 83 % 0.00 in
10:06 79.0 °F 72.7 °F 29.92 in SE 9.0 mph 15.0 mph 81 % 0.00 in
10:11 79.3 °F 73.0 °F 29.92 in South 6.0 mph 15.0 mph 81 % 0.00 in
10:16 79.0 °F 72.0 °F 29.92 in South 8.0 mph 15.0 mph 79 % 0.00 in
10:21 78.6 °F 72.0 °F 29.92 in SE 11.0 mph 14.0 mph 80 % 0.00 in
10:26 79.0 °F 72.7 °F 29.92 in ESE 7.0 mph 14.0 mph 81 % 0.00 in
10:31 79.9 °F 72.9 °F 29.92 in SSE 8.0 mph 13.0 mph 79 % 0.00 in
10:36 80.4 °F 72.1 °F 29.92 in SW 10.0 mph 16.0 mph 76 % 0.00 in
10:41 80.8 °F 73.2 °F 29.92 in ESE 5.0 mph 16.0 mph 78 % 0.00 in
10:46 81.3 °F 72.7 °F 29.91 in South 4.0 mph 16.0 mph 75 % 0.00 in
10:52 81.3 °F 71.8 °F 29.91 in ESE 6.0 mph 15.0 mph 73 % 0.00 in
10:57 81.7 °F 72.1 °F 29.91 in South 8.0 mph 15.0 mph 73 % 0.00 in
11:02 81.7 °F 70.9 °F 29.91 in SSE 6.0 mph 15.0 mph 70 % 0.00 in
11:07 82.0 °F 72.1 °F 29.91 in SSE 7.0 mph 15.0 mph 72 % 0.00 in
11:12 82.0 °F 71.8 °F 29.90 in ESE 5.0 mph 15.0 mph 71 % 0.00 in
11:17 82.2 °F 71.1 °F 29.91 in SSE 14.0 mph 15.0 mph 69 % 0.00 in
11:22 81.7 °F 71.4 °F 29.90 in SE 5.0 mph 17.0 mph 71 % 0.00 in
11:27 82.2 °F 72.0 °F 29.90 in SSE 6.0 mph 17.0 mph 71 % 0.00 in
11:32 82.6 °F 71.8 °F 29.90 in SSW 5.0 mph 17.0 mph 70 % 0.00 in
11:37 82.9 °F 71.2 °F 29.90 in SE 5.0 mph 14.0 mph 68 % 0.00 in
11:42 83.5 °F 71.4 °F 29.89 in South 13.0 mph 14.0 mph 67 % 0.00 in
11:47 83.7 °F 71.6 °F 29.89 in SSW 4.0 mph 16.0 mph 67 % 0.00 in
11:52 84.0 °F 71.4 °F 29.89 in South 5.0 mph 16.0 mph 66 % 0.00 in
11:57 84.0 °F 70.5 °F 29.88 in South 9.0 mph 16.0 mph 64 % 0.00 in
12:02 83.7 °F 71.1 °F 29.88 in SSW 10.0 mph 18.0 mph 66 % 0.00 in
12:07 83.1 °F 71.1 °F 29.88 in SSE 7.0 mph 18.0 mph 67 % 0.00 in
12:12 83.8 °F 72.1 °F 29.88 in East 2.0 mph 18.0 mph 68 % 0.00 in
12:17 83.8 °F 71.2 °F 29.88 in South 7.0 mph 13.0 mph 66 % 0.00 in
12:22 84.6 °F 70.5 °F 29.88 in SSW 5.0 mph 18.0 mph 63 % 0.00 in
12:27 85.1 °F 72.0 °F 29.88 in South 4.0 mph 18.0 mph 65 % 0.00 in
12:32 85.3 °F 71.2 °F 29.88 in ESE 5.0 mph 18.0 mph 63 % 0.00 in
12:37 84.6 °F 72.0 °F 29.88 in South 4.0 mph 15.0 mph 66 % 0.00 in
12:38 84.6 °F 72.0 °F 29.87 in SSW 7.0 mph 15.0 mph 66 % 0.00 in
12:43 84.6 °F 72.0 °F 29.87 in SSW 8.0 mph 14.0 mph 66 % 0.00 in
12:48 84.6 °F 72.0 °F 29.87 in ESE 7.0 mph 14.0 mph 66 % 0.00 in
12:53 84.9 °F 71.4 °F 29.87 in SW 6.0 mph 15.0 mph 64 % 0.00 in
12:58 85.5 °F 70.9 °F 29.86 in South 9.0 mph 16.0 mph 62 % 0.00 in
13:03 85.3 °F 70.7 °F 29.86 in SE 4.0 mph 16.0 mph 62 % 0.00 in
13:08 85.6 °F 71.6 °F 29.86 in SE 13.0 mph 16.0 mph 63 % 0.00 in
13:13 85.6 °F 70.7 °F 29.86 in ESE 9.0 mph 16.0 mph 61 % 0.00 in
13:18 85.6 °F 70.2 °F 29.86 in SSE 7.0 mph 16.0 mph 60 % 0.00 in
13:23 86.2 °F 70.7 °F 29.86 in SSE 9.0 mph 15.0 mph 60 % 0.00 in
13:28 86.0 °F 70.5 °F 29.86 in SSE 10.0 mph 14.0 mph 60 % 0.00 in
13:33 86.2 °F 70.7 °F 29.86 in SSW 6.0 mph 14.0 mph 60 % 0.00 in
13:38 86.4 °F 70.9 °F 29.85 in SSE 5.0 mph 15.0 mph 60 % 0.00 in
13:43 86.0 °F 70.5 °F 29.85 in South 7.0 mph 15.0 mph 60 % 0.00 in
13:48 85.6 °F 70.7 °F 29.85 in SSW 5.0 mph 15.0 mph 61 % 0.00 in
13:53 85.3 °F 70.7 °F 29.85 in SE 4.0 mph 14.0 mph 62 % 0.00 in
13:58 85.6 °F 72.1 °F 29.85 in SW 5.0 mph 12.0 mph 64 % 0.00 in
14:03 86.4 °F 71.8 °F 29.85 in WSW 9.0 mph 12.0 mph 62 % 0.00 in
14:08 85.8 °F 70.9 °F 29.85 in SSW 4.0 mph 14.0 mph 61 % 0.00 in
14:13 85.5 °F 71.4 °F 29.85 in SSW 4.0 mph 14.0 mph 63 % 0.00 in
14:18 85.3 °F 70.7 °F 29.84 in WSW 1.0 mph 14.0 mph 62 % 0.00 in
14:23 85.6 °F 70.7 °F 29.84 in South 9.0 mph 9.0 mph 61 % 0.00 in
14:28 86.4 °F 70.9 °F 29.84 in SW 8.0 mph 13.0 mph 60 % 0.00 in
14:33 86.2 °F 71.6 °F 29.83 in SSE 7.0 mph 13.0 mph 62 % 0.00 in
14:38 86.0 °F 70.5 °F 29.83 in SSW 11.0 mph 13.0 mph 60 % 0.00 in
14:43 86.0 °F 69.4 °F 29.83 in South 4.0 mph 13.0 mph 58 % 0.00 in
14:48 86.2 °F 71.1 °F 29.83 in ESE 5.0 mph 14.0 mph 61 % 0.00 in
14:53 86.5 °F 70.5 °F 29.82 in SE 2.0 mph 14.0 mph 59 % 0.00 in
14:58 87.1 °F 70.0 °F 29.82 in West 4.0 mph 14.0 mph 57 % 0.00 in
15:03 87.1 °F 70.0 °F 29.82 in SSE 9.0 mph 13.0 mph 57 % 0.00 in
15:08 86.5 °F 71.1 °F 29.82 in South 6.0 mph 15.0 mph 60 % 0.00 in
15:13 86.7 °F 70.2 °F 29.81 in SW 12.0 mph 15.0 mph 58 % 0.00 in
15:18 86.7 °F 70.7 °F 29.81 in SSW 11.0 mph 15.0 mph 59 % 0.00 in
15:23 86.9 °F 69.8 °F 29.81 in SSW 3.0 mph 14.0 mph 57 % 0.00 in
15:28 87.6 °F 71.1 °F 29.81 in SE 4.0 mph 14.0 mph 58 % 0.00 in
15:33 87.3 °F 69.1 °F 29.81 in SSW 7.0 mph 14.0 mph 55 % 0.00 in
15:38 86.5 °F 68.9 °F 29.81 in SSW 6.0 mph 13.0 mph 56 % 0.00 in
15:43 86.2 °F 68.2 °F 29.81 in SSE 9.0 mph 13.0 mph 55 % 0.00 in
15:48 86.2 °F 68.7 °F 29.80 in South 8.0 mph 15.0 mph 56 % 0.00 in
15:53 86.5 °F 68.0 °F 29.80 in SSE 3.0 mph 15.0 mph 54 % 0.00 in
15:58 86.7 °F 68.5 °F 29.80 in NW 1.0 mph 15.0 mph 55 % 0.00 in
16:03 86.5 °F 68.9 °F 29.80 in SSE 7.0 mph 15.0 mph 56 % 0.00 in
16:08 86.9 °F 68.2 °F 29.80 in SSW 4.0 mph 15.0 mph 54 % 0.00 in
16:13 86.5 °F 68.0 °F 29.80 in South 5.0 mph 13.0 mph 54 % 0.00 in
16:18 86.5 °F 68.0 °F 29.79 in SSW 5.0 mph 13.0 mph 54 % 0.00 in
16:23 86.7 °F 68.0 °F 29.79 in WSW 2.0 mph 14.0 mph 54 % 0.00 in
16:28 86.9 °F 66.0 °F 29.79 in South 2.0 mph 15.0 mph 50 % 0.00 in
16:33 86.9 °F 64.8 °F 29.78 in South 9.0 mph 15.0 mph 48 % 0.00 in
16:38 86.9 °F 66.6 °F 29.78 in SSE 4.0 mph 16.0 mph 51 % 0.00 in
16:43 87.3 °F 66.4 °F 29.78 in SE 10.0 mph 16.0 mph 50 % 0.00 in
16:49 87.3 °F 65.8 °F 29.78 in South 8.0 mph 16.0 mph 49 % 0.00 in
16:54 87.1 °F 65.7 °F 29.78 in SSE 8.0 mph 15.0 mph 49 % 0.00 in
16:59 87.1 °F 65.7 °F 29.78 in SW 9.0 mph 14.0 mph 49 % 0.00 in
17:04 87.1 °F 65.7 °F 29.78 in SW 3.0 mph 14.0 mph 49 % 0.00 in
17:09 87.3 °F 65.8 °F 29.78 in SSW 4.0 mph 14.0 mph 49 % 0.00 in
17:14 87.1 °F 65.7 °F 29.78 in SSE 7.0 mph 14.0 mph 49 % 0.00 in
17:19 86.9 °F 65.5 °F 29.78 in SSE 8.0 mph 14.0 mph 49 % 0.00 in
17:24 86.7 °F 64.8 °F 29.78 in SSW 5.0 mph 14.0 mph 48 % 0.00 in
17:29 86.5 °F 64.6 °F 29.78 in SSE 6.0 mph 14.0 mph 48 % 0.00 in
17:34 86.5 °F 66.7 °F 29.78 in SSW 3.0 mph 14.0 mph 52 % 0.00 in
17:39 86.7 °F 66.4 °F 29.78 in SSE 6.0 mph 13.0 mph 51 % 0.00 in
17:44 86.7 °F 66.4 °F 29.78 in SSE 2.0 mph 12.0 mph 51 % 0.00 in
17:49 86.9 °F 67.1 °F 29.78 in SSE 8.0 mph 14.0 mph 52 % 0.00 in
17:54 86.7 °F 67.5 °F 29.78 in SSW 5.0 mph 14.0 mph 53 % 0.00 in
17:59 86.7 °F 68.5 °F 29.78 in SE 4.0 mph 14.0 mph 55 % 0.00 in
18:04 86.5 °F 69.4 °F 29.78 in South 6.0 mph 11.0 mph 57 % 0.00 in
18:09 86.4 °F 69.8 °F 29.78 in SE 7.0 mph 11.0 mph 58 % 0.00 in
18:14 85.6 °F 69.6 °F 29.78 in SSE 6.0 mph 11.0 mph 59 % 0.00 in
18:19 85.3 °F 69.8 °F 29.78 in South 6.0 mph 13.0 mph 60 % 0.00 in
18:24 85.3 °F 69.8 °F 29.77 in South 4.0 mph 13.0 mph 60 % 0.00 in
18:29 85.3 °F 70.3 °F 29.77 in SE 4.0 mph 13.0 mph 61 % 0.00 in
18:34 85.1 °F 70.2 °F 29.78 in SSW 5.0 mph 12.0 mph 61 % 0.00 in
18:39 84.9 °F 70.5 °F 29.78 in SSE 6.0 mph 12.0 mph 62 % 0.00 in
18:44 84.7 °F 70.3 °F 29.78 in South 7.0 mph 11.0 mph 62 % 0.00 in
18:49 84.4 °F 69.4 °F 29.78 in SE 7.0 mph 11.0 mph 61 % 0.00 in
18:54 84.4 °F 68.5 °F 29.78 in South 9.0 mph 10.0 mph 59 % 0.00 in
18:59 84.2 °F 68.4 °F 29.78 in South 6.0 mph 11.0 mph 59 % 0.00 in
19:04 84.2 °F 69.3 °F 29.78 in South 7.0 mph 12.0 mph 61 % 0.00 in
19:09 84.0 °F 70.5 °F 29.78 in SE 7.0 mph 12.0 mph 64 % 0.00 in
19:14 83.5 °F 70.0 °F 29.78 in SW 4.0 mph 12.0 mph 64 % 0.00 in
19:19 82.9 °F 70.0 °F 29.78 in SSE 4.0 mph 15.0 mph 65 % 0.00 in
19:24 82.6 °F 69.6 °F 29.78 in South 9.0 mph 15.0 mph 65 % 0.00 in
19:30 82.2 °F 69.3 °F 29.78 in ESE 5.0 mph 15.0 mph 65 % 0.00 in
19:35 81.9 °F 69.4 °F 29.78 in South 10.0 mph 14.0 mph 66 % 0.00 in
19:40 81.7 °F 69.3 °F 29.78 in SSW 4.0 mph 14.0 mph 66 % 0.00 in
19:45 81.3 °F 68.9 °F 29.78 in SSE 3.0 mph 10.0 mph 66 % 0.00 in
19:50 81.0 °F 68.9 °F 29.78 in SSW 5.0 mph 10.0 mph 67 % 0.00 in
19:55 80.8 °F 69.6 °F 29.78 in SSE 3.0 mph 10.0 mph 69 % 0.00 in
20:00 80.6 °F 70.0 °F 29.78 in South 3.0 mph 10.0 mph 70 % 0.00 in
20:05 80.2 °F 69.6 °F 29.78 in SE 5.0 mph 9.0 mph 70 % 0.00 in
20:10 80.1 °F 69.4 °F 29.78 in South 3.0 mph 9.0 mph 70 % 0.00 in
20:15 80.1 °F 69.8 °F 29.79 in SE 5.0 mph 10.0 mph 71 % 0.00 in
20:20 79.9 °F 70.0 °F 29.79 in SSE 6.0 mph 10.0 mph 72 % 0.00 in
20:25 79.5 °F 70.5 °F 29.79 in SE 5.0 mph 11.0 mph 74 % 0.00 in
20:30 79.3 °F 70.7 °F 29.79 in SSW 5.0 mph 13.0 mph 75 % 0.00 in
20:32 79.3 °F 70.7 °F 29.79 in South 9.0 mph 13.0 mph 75 % 0.00 in
20:37 79.0 °F 70.7 °F 29.79 in ESE 8.0 mph 13.0 mph 76 % 0.00 in
20:42 78.6 °F 70.9 °F 29.79 in SSE 5.0 mph 13.0 mph 77 % 0.00 in
20:47 78.4 °F 71.1 °F 29.79 in SSE 5.0 mph 12.0 mph 78 % 0.00 in
20:52 78.3 °F 70.9 °F 29.79 in SSE 8.0 mph 12.0 mph 78 % 0.00 in
20:57 78.1 °F 71.1 °F 29.79 in SSE 7.0 mph 12.0 mph 79 % 0.00 in
21:02 77.7 °F 70.7 °F 29.79 in SW 4.0 mph 12.0 mph 79 % 0.00 in
21:07 77.7 °F 71.1 °F 29.79 in South 3.0 mph 11.0 mph 80 % 0.00 in
21:12 77.5 °F 70.9 °F 29.79 in WSW 7.0 mph 11.0 mph 80 % 0.00 in
21:17 77.5 °F 70.9 °F 29.79 in SE 8.0 mph 12.0 mph 80 % 0.00 in
21:22 77.4 °F 70.7 °F 29.80 in ESE 11.0 mph 12.0 mph 80 % 0.00 in
21:27 77.2 °F 70.9 °F 29.80 in ESE 7.0 mph 13.0 mph 81 % 0.00 in
21:32 77.0 °F 71.1 °F 29.80 in SE 7.0 mph 13.0 mph 82 % 0.00 in
21:37 76.8 °F 70.9 °F 29.80 in ESE 3.0 mph 13.0 mph 82 % 0.00 in
21:42 76.8 °F 70.9 °F 29.80 in SSE 5.0 mph 13.0 mph 82 % 0.00 in
21:47 76.6 °F 71.1 °F 29.80 in SE 2.0 mph 13.0 mph 83 % 0.00 in
21:52 76.5 °F 70.9 °F 29.80 in ESE 11.0 mph 13.0 mph 83 % 0.00 in
21:57 76.5 °F 71.2 °F 29.80 in SE 9.0 mph 12.0 mph 84 % 0.00 in
22:02 76.3 °F 71.1 °F 29.81 in SSW 5.0 mph 12.0 mph 84 % 0.00 in
22:07 76.1 °F 71.2 °F 29.81 in ESE 7.0 mph 12.0 mph 85 % 0.00 in
22:12 75.9 °F 71.1 °F 29.81 in SE 5.0 mph 12.0 mph 85 % 0.00 in
22:17 75.7 °F 70.9 °F 29.81 in SSE 5.0 mph 11.0 mph 85 % 0.00 in
22:22 75.6 °F 71.1 °F 29.82 in ESE 5.0 mph 12.0 mph 86 % 0.00 in
22:27 75.6 °F 71.1 °F 29.83 in SE 5.0 mph 12.0 mph 86 % 0.00 in
22:32 75.4 °F 70.9 °F 29.83 in ESE 4.0 mph 12.0 mph 86 % 0.00 in
22:37 75.4 °F 70.9 °F 29.83 in SE 8.0 mph 12.0 mph 86 % 0.00 in
22:42 75.4 °F 71.2 °F 29.83 in SE 7.0 mph 12.0 mph 87 % 0.00 in
22:47 75.2 °F 71.1 °F 29.83 in SE 7.0 mph 11.0 mph 87 % 0.00 in
22:52 75.0 °F 70.9 °F 29.84 in South 6.0 mph 14.0 mph 87 % 0.00 in
22:57 75.0 °F 70.9 °F 29.84 in South 4.0 mph 14.0 mph 87 % 0.00 in
23:02 75.0 °F 70.9 °F 29.83 in ESE 3.0 mph 14.0 mph 87 % 0.00 in
23:07 74.8 °F 71.1 °F 29.83 in ESE 3.0 mph 8.0 mph 88 % 0.00 in
23:12 74.8 °F 71.1 °F 29.83 in SSE 5.0 mph 8.0 mph 88 % 0.00 in
23:17 74.7 °F 70.9 °F 29.83 in SE 5.0 mph 8.0 mph 88 % 0.00 in
23:22 74.7 °F 70.9 °F 29.83 in SSE 2.0 mph 8.0 mph 88 % 0.00 in
23:27 74.7 °F 71.2 °F 29.83 in SSE 3.0 mph 9.0 mph 89 % 0.00 in
23:32 74.5 °F 71.1 °F 29.83 in SSE 3.0 mph 9.0 mph 89 % 0.00 in
23:37 74.5 °F 71.1 °F 29.83 in South 3.0 mph 9.0 mph 89 % 0.00 in
23:42 74.3 °F 70.9 °F 29.83 in SE 5.0 mph 7.0 mph 89 % 0.00 in
23:47 74.1 °F 70.7 °F 29.83 in SE 5.0 mph 9.0 mph 89 % 0.00 in
23:52 74.1 °F 71.1 °F 29.83 in ESE 5.0 mph 9.0 mph 90 % 0.00 in
23:57 73.9 °F 70.9 °F 29.83 in SE 6.0 mph 9.0 mph 90 % 0.00 in
Spring, Texas: Villages of Bridgestone
Compliments of Weather Underground - 3.25 mb

Script developed by  Jim McMurry - jmcmurry@mwt.net Adapted for the template by  Wim van der Kuil - Leuven-Template.eu

You find our weather info also at:

UK Metoffice

WeatherCloud

Weather Underground

Mid-South Weather Network

AWEKAS

Citizen Weather Observer Program (CWOP)

HAMweather, WeatherForYou, PWS Weather

Equipment we use:

Weather-station
Davis Vantage Vue

Weather-program
Meteohub

Weather-server
Debian 7.9 x86 (Guest)

Provider
DreamHost

Davis Vantage Vue

Meteohub

Debian 7.9 x86 (Guest)

DreamHost